GW6334 Weather Reports


time (UTC)temp
F
wind
direction
speed
knots
gust
knots
rain 1hr
in
rain 24hr
in
rain mn
in
humidity
%
barometer
mb
20260508004528 52 185 0.0 0.0 0.00 0.00 0.00 45 1007.3
20260508003026 53 185 0.0 0.9 0.00 0.00 0.00 44 1007.1
20260508001528 53 185 0.0 0.9 0.00 0.00 0.00 41 1006.9
20260508000025 54 203 0.0 0.9 0.00 0.00 0.00 40 1006.8
20260507234535 55 220 0.0 3.5 0.00 0.00 0.00 38 1006.7
20260507233008 56 193 0.0 2.6 0.00 0.00 0.00 38 1006.6
20260507231515 57 195 0.9 2.6 0.00 0.00 0.00 37 1006.5
20260507230008 57 154 0.9 4.3 0.00 0.00 0.00 35 1006.5
20260507224507 58 218 0.9 4.3 0.00 0.00 0.00 35 1006.3
20260507223008 59 231 0.9 3.5 0.00 0.00 0.00 33 1006.2
20260507221509 59 191 0.9 4.3 0.00 0.00 0.00 34 1006.0
20260507220008 59 229 0.9 4.3 0.00 0.00 0.00 35 1006.0
20260507214503 60 166 1.7 6.1 0.00 0.00 0.00 34 1005.9
20260507213011 60 242 1.7 5.2 0.00 0.00 0.00 35 1005.7
20260507211510 60 239 0.9 5.2 0.00 0.00 0.00 32 1005.7
20260507210011 61 235 1.7 4.3 0.00 0.00 0.00 32 1005.6
20260507204512 61 190 0.9 5.2 0.00 0.00 0.00 34 1005.6
20260507203007 62 229 1.7 7.0 0.00 0.00 0.00 33 1005.6
20260507201513 62 172 1.7 4.3 0.00 0.00 0.00 33 1005.6
20260507200009 63 185 1.7 7.0 0.00 0.00 0.00 33 1005.7
20260507194513 64 193 1.7 4.3 0.00 0.00 0.00 33 1005.8
20260507193019 64 160 1.7 4.3 0.00 0.00 0.00 32 1006.0
20260507191508 63 238 1.7 3.5 0.00 0.00 0.00 30 1006.1
20260507190014 63 189 0.9 7.0 0.00 0.00 0.00 32 1006.2
20260507184512 64 141 1.7 5.2 0.00 0.00 0.00 28 1006.4
20260507183020 64 222 1.7 6.1 0.00 0.00 0.00 32 1006.4
20260507181505 65 191 2.6 6.1 0.00 0.00 0.00 29 1006.6
20260507180015 65 238 0.9 7.0 0.00 0.00 0.00 36 1006.5
20260507174515 64 151 1.7 7.8 0.00 0.00 0.00 37 1006.6
20260507173018 64 230 0.9 7.8 0.00 0.00 0.00 37 1006.5
20260507171527 63 234 0.9 5.2 0.00 0.00 0.00 40 1006.6
20260507170010 63 121 1.7 5.2 0.00 0.00 0.00 44 1006.9
20260507164514 63 225 1.7 5.2 0.00 0.00 0.00 43 1006.9
20260507163015 62 214 1.7 4.3 0.00 0.00 0.00 48 1007.0
20260507161518 61 153 0.9 5.2 0.00 0.00 0.00 53 1007.2
20260507160028 59 181 0.9 3.5 0.00 0.00 0.00 54 1007.3
20260507154512 59 216 0.9 2.6 0.00 0.00 0.00 58 1007.3
20260507153017 59 255 2.6 4.3 0.00 0.00 0.00 55 1007.3
20260507151517 59 222 1.7 4.3 0.00 0.00 0.00 57 1007.5
20260507150018 58 227 0.9 1.7 0.00 0.00 0.00 61 1007.7
20260507144520 57 237 2.6 5.2 0.00 0.00 0.00 57 1007.9
20260507143032 57 172 0.9 3.5 0.00 0.00 0.00 60 1008.0
20260507141519 56 223 0.0 2.6 0.00 0.00 0.00 62 1008.1
20260507140025 56 237 0.9 3.5 0.00 0.00 0.00 61 1008.1
20260507134520 55 247 0.9 3.5 0.00 0.00 0.00 63 1008.0
20260507133020 54 220 1.7 4.3 0.00 0.00 0.00 66 1008.2
20260507131515 53 214 0.9 2.6 0.00 0.00 0.00 68 1008.4
20260507130037 52 230 0.9 1.7 0.00 0.00 0.00 75 1008.4
20260507124523 51 208 0.0 1.7 0.00 0.00 0.00 80 1008.7
20260507123022 50 233 0.9 1.7 0.00 0.00 0.00 83 1008.6
20260507121523 49 231 0.9 2.6 0.00 0.00 0.00 88 1008.6
20260507120018 48 226 0.0 1.7 0.00 0.00 0.00 89 1008.4
20260507114529 48 188 0.0 0.9 0.00 0.00 0.00 90 1008.6
20260507113023 47 193 0.0 0.9 0.00 0.00 0.00 91 1008.5
20260507111514 47 207 0.0 0.9 0.00 0.00 0.00 92 1008.5
20260507110021 47 207 0.0 0.0 0.00 0.00 0.00 93 1008.2
20260507104525 47 207 0.0 0.9 0.00 0.00 0.00 92 1008.5
20260507103027 47 227 0.0 0.9 0.00 0.00 0.00 92 1008.1
20260507101510 47 233 0.0 0.0 0.00 0.00 0.00 92 1007.7
20260507100016 47 233 0.0 0.9 0.00 0.00 0.00 91 1007.7
20260507094528 47 233 0.0 1.7 0.00 0.00 0.00 91 1007.5
20260507093023 48 227 0.0 0.9 0.00 0.00 0.00 91 1007.9
20260507091534 48 232 0.0 1.7 0.00 0.00 0.00 90 1007.7
20260507090014 49 181 0.0 0.9 0.00 0.00 0.00 91 1008.0
20260507084520 49 176 0.0 0.9 0.00 0.00 0.00 92 1007.8
20260507083024 49 181 0.0 0.9 0.00 0.00 0.00 91 1007.7
20260507081525 50 227 0.0 0.0 0.00 0.00 0.00 91 1007.3
20260507080028 50 227 0.0 1.7 0.00 0.00 0.00 90 1007.5
20260507074516 51 239 0.9 2.6 0.00 0.00 0.00 89 1007.3
20260507073020 52 228 0.0 0.9 0.00 0.00 0.00 90 1007.5
20260507071528 52 227 0.0 0.9 0.00 0.00 0.00 89 1006.6
20260507070031 52 226 0.0 0.0 0.00 0.00 0.00 90 1006.7
20260507064539 52 226 0.0 1.7 0.00 0.00 0.00 90 1006.6
20260507063020 53 216 0.0 0.0 0.00 0.00 0.00 91 1006.7
20260507061524 53 227 0.0 1.7 0.00 0.00 0.00 91 1006.6
20260507060026 53 213 0.0 0.9 0.00 0.00 0.00 91 1006.7
20260507054527 54 215 0.0 1.7 0.00 0.00 0.00 90 1006.8
20260507053026 54 219 0.0 1.7 0.00 0.00 0.00 91 1007.0
20260507051524 55 234 0.9 3.5 0.00 0.00 0.00 91 1006.8
20260507050037 55 218 0.0 3.5 0.00 0.00 0.00 91 1006.9
20260507044529 56 217 0.0 1.7 0.00 0.00 0.00 93 1007.0
20260507043026 57 278 0.0 0.9 0.00 0.00 0.00 93 1006.9
20260507041529 57 180 0.0 1.7 0.00 0.00 0.00 93 1006.9
20260507040026 57 186 0.0 1.7 0.00 0.00 0.00 94 1007.0
20260507034526 58 181 0.9 1.7 0.00 0.00 0.00 94 1006.8
20260507033028 58 180 0.0 0.9 0.00 0.00 0.00 93 1006.5
20260507031525 58 180 0.9 3.5 0.00 0.00 0.00 93 1006.5
20260507030029 58 188 0.9 2.6 0.00 0.00 0.00 92 1006.1
20260507024530 58 159 0.9 2.6 0.00 0.00 0.00 93 1006.1
20260507023026 58 180 0.9 5.2 0.00 0.00 0.00 93 1006.4
20260507021527 58 184 0.9 2.6 0.00 0.00 0.00 93 1006.3
20260507020029 58 190 0.0 1.7 0.00 0.00 0.00 93 1006.1
20260507014521 57 188 0.9 2.6 0.00 0.00 0.00 93 1006.2
20260507013025 57 171 0.0 2.6 0.00 0.00 0.00 93 1006.2
20260507011512 57 221 0.0 2.6 0.00 0.00 0.00 93 1006.3
20260507010021 57 156 0.9 2.6 0.00 0.00 0.00 93 1006.4